Eastsound, WA

6:33 PM PDT on May 28, 2017 (GMT -0700)
Orcas Island

Weather History for KORS - October, 2011

Change the Weather History Date:

Saturday, October 22, 2011

  Actual Average (KFHR) Record (KFHR)
Temperature  
Mean Temperature 54 °F -  
Max Temperature 57 °F 53 °F 62 °F (2003)
Min Temperature 50 °F 40 °F 36 °F (2012)
Degree Days  
Heating Degree Days 12    
Growing Degree Days 4 (Base 50)    
Moisture  
Dew Point 50 °F    
Average Humidity 92    
Maximum Humidity 100    
Minimum Humidity 77    
Precipitation  
Precipitation 0.04 in - - ()
Sea Level Pressure  
Sea Level Pressure 30.13 in    
Wind  
Wind Speed 2 mph (South)    
Max Wind Speed 12 mph    
Max Gust Speed -    
Visibility 8 miles    
Events Rain    
Averages and records for this station are not official NWS values.
T = Trace of Precipitation, MM = Missing Value Source: NWS Daily Summary

Daily Weather History Graph

Daily Weather History Graph

Search for Another Location

Airport or City:

Trip Planner

Search our weather history database for the weather conditions in past years. The results will help you decide how hot, cold, wet, or windy it might be!

Date:

Astronomy

Oct. 22, 2011 Rise Set
Actual Time 7:42 AM PDT 6:09 PM PDT
Civil Twilight 7:10 AM PDT 6:41 PM PDT
Nautical Twilight 6:33 AM PDT 7:17 PM PDT
Astronomical Twilight 5:56 AM PDT 7:54 PM PDT
Moon 2:23 AM PDT (10/22) 3:49 PM PDT (10/22)
Length of Visible Light 11h 31m
Length of Day
10h 26m
Waning Crescent, 22% of the Moon is Illuminated
Oct 22
Waning Crescent
Oct 26
New
Nov 2
First Quarter
Nov 10
Full
Nov 18
Last Quarter

Hourly Weather History & Observations

Time (PDT) Temp. Dew Point Humidity Pressure Visibility Wind Dir Wind Speed Gust Speed Precip Events Conditions
12:15 AM 53.6 °F 46.4 °F 77% 30.18 in 10.0 mi Calm Calm - N/A   Overcast
12:35 AM 53.6 °F 48.2 °F 82% 30.19 in 10.0 mi South 3.5 mph - N/A   Overcast
12:55 AM 53.6 °F 48.2 °F 82% 30.18 in 10.0 mi South 4.6 mph - N/A   Overcast
1:15 AM 53.6 °F 48.2 °F 82% 30.18 in 10.0 mi Calm Calm - N/A   Overcast
1:35 AM 53.6 °F 48.2 °F 82% 30.19 in 10.0 mi South 3.5 mph - N/A   Overcast
1:55 AM 53.6 °F 48.2 °F 82% 30.19 in 10.0 mi South 3.5 mph - N/A   Overcast
2:15 AM 51.8 °F 48.2 °F 88% 30.18 in 10.0 mi South 4.6 mph - N/A   Mostly Cloudy
2:35 AM 51.8 °F 48.2 °F 88% 30.18 in 10.0 mi Calm Calm - N/A   Partly Cloudy
2:55 AM 51.8 °F 48.2 °F 88% 30.18 in 10.0 mi Calm Calm - N/A   Clear
3:15 AM 51.8 °F 48.2 °F 88% 30.17 in 10.0 mi Calm Calm - N/A   Clear
3:35 AM 50.0 °F 48.2 °F 94% 30.17 in 10.0 mi Calm Calm - N/A   Clear
3:55 AM 50.0 °F 48.2 °F 94% 30.16 in 10.0 mi Calm Calm - N/A   Scattered Clouds
4:15 AM 50.0 °F 48.2 °F 94% 30.15 in 10.0 mi Calm Calm - N/A   Scattered Clouds
4:35 AM 50.0 °F 48.2 °F 94% 30.15 in 10.0 mi Calm Calm - N/A   Mostly Cloudy
4:55 AM 50.0 °F 48.2 °F 94% 30.14 in 10.0 mi Calm Calm - N/A   Mostly Cloudy
5:15 AM 51.8 °F 48.2 °F 88% 30.14 in 10.0 mi Calm Calm - N/A Rain Light Rain
5:35 AM 51.8 °F 50.0 °F 94% 30.14 in 4.0 mi SSW 9.2 mph - 0.01 in Rain Rain
5:55 AM 50.0 °F 50.0 °F 100% 30.14 in 3.0 mi Calm Calm - 0.04 in Rain Heavy Rain
6:15 AM 50.0 °F 50.0 °F 100% 30.13 in 3.0 mi Calm Calm - N/A Rain Rain
6:35 AM 50.0 °F 50.0 °F 100% 30.11 in 4.0 mi Calm Calm - N/A Rain Rain
6:55 AM 50.0 °F 50.0 °F 100% 30.10 in 6.0 mi NNE 3.5 mph - N/A Rain Light Rain
7:15 AM 50.0 °F 50.0 °F 100% 30.10 in 10.0 mi Calm Calm - N/A   Scattered Clouds
7:35 AM 50.0 °F 50.0 °F 100% 30.11 in 5.0 mi Calm Calm - N/A Rain Light Rain
7:55 AM 50.0 °F 50.0 °F 100% 30.11 in 4.0 mi Calm Calm - N/A Rain Rain
8:15 AM 50.0 °F 50.0 °F 100% 30.11 in 8.0 mi NE 3.5 mph - N/A Rain Light Rain
8:35 AM 50.0 °F 50.0 °F 100% 30.13 in 7.0 mi North 4.6 mph - N/A Rain Light Rain
8:55 AM 50.0 °F 50.0 °F 100% 30.14 in 4.0 mi East 3.5 mph - N/A Rain Light Rain
9:15 AM 50.0 °F 50.0 °F 100% 30.11 in 4.0 mi East 4.6 mph - N/A Rain Light Rain
9:35 AM 50.0 °F 48.2 °F 94% 30.09 in 10.0 mi East 3.5 mph - N/A   Partly Cloudy
9:55 AM 50.0 °F 48.2 °F 94% 30.10 in 10.0 mi East 3.5 mph - N/A   Partly Cloudy
10:15 AM 53.6 °F 50.0 °F 88% 30.10 in 10.0 mi ESE 3.5 mph - N/A   Scattered Clouds
10:35 AM 53.6 °F 50.0 °F 88% 30.11 in 10.0 mi Calm Calm - N/A   Mostly Cloudy
10:55 AM 53.6 °F 50.0 °F 88% 30.13 in 10.0 mi Calm Calm - N/A   Overcast
11:15 AM 53.6 °F 50.0 °F 88% 30.11 in 10.0 mi North - - N/A   Overcast
11:35 AM 53.6 °F 50.0 °F 88% 30.10 in 9.0 mi Calm Calm - N/A   Overcast
11:55 AM 55.4 °F 50.0 °F 82% 30.11 in 10.0 mi South 5.8 mph - N/A   Mostly Cloudy
12:35 PM 53.6 °F 50.0 °F 88% 30.11 in 10.0 mi Calm Calm - N/A   Overcast
12:55 PM 51.8 °F 50.0 °F 94% 30.11 in 10.0 mi Calm Calm - N/A Rain Light Rain
1:15 PM 51.8 °F 50.0 °F 94% 30.10 in 10.0 mi WNW 3.5 mph - N/A Rain Light Rain
1:35 PM 51.8 °F 50.0 °F 94% 30.10 in 10.0 mi Calm Calm - N/A   Overcast
1:55 PM 51.8 °F 50.0 °F 94% 30.12 in 5.0 mi SW 5.8 mph - N/A Rain Light Rain
2:15 PM 53.6 °F 53.6 °F 100% 30.09 in 5.0 mi South 8.1 mph - N/A Rain Light Rain
2:35 PM 53.6 °F 53.6 °F 100% 30.10 in 3.0 mi South 8.1 mph - N/A Rain Light Rain
2:55 PM 53.6 °F 51.8 °F 94% 30.08 in 5.0 mi SSW 10.4 mph - N/A Rain Light Rain
3:15 PM 55.4 °F 53.6 °F 94% 30.09 in 10.0 mi SW 11.5 mph - N/A   Mostly Cloudy
3:35 PM 53.6 °F 53.6 °F 100% 30.09 in 10.0 mi South 9.2 mph - N/A   Mostly Cloudy
3:55 PM 55.4 °F 53.6 °F 94% 30.08 in 10.0 mi South 4.6 mph - N/A   Partly Cloudy
4:15 PM 55.4 °F 53.6 °F 94% 30.08 in 10.0 mi South 6.9 mph - N/A   Partly Cloudy
4:35 PM 55.4 °F 53.6 °F 94% 30.08 in 10.0 mi South 5.8 mph - N/A   Partly Cloudy
4:55 PM 57.2 °F 53.6 °F 88% 30.08 in 10.0 mi South 8.1 mph - N/A   Clear
5:15 PM 57.2 °F 53.6 °F 88% 30.08 in 10.0 mi South 10.4 mph - N/A   Clear
5:35 PM 57.2 °F 53.6 °F 88% 30.08 in 10.0 mi South 8.1 mph 18.4 mph N/A   Clear
5:55 PM 55.4 °F 53.6 °F 94% 30.08 in 10.0 mi South 8.1 mph - N/A   Clear
6:15 PM 55.4 °F 51.8 °F 88% 30.08 in 10.0 mi South 9.2 mph - N/A   Clear
6:35 PM 55.4 °F 51.8 °F 88% 30.09 in 10.0 mi South 4.6 mph - N/A   Clear
6:55 PM 55.4 °F 51.8 °F 88% 30.09 in 10.0 mi Calm Calm - N/A   Clear
7:15 PM 53.6 °F 51.8 °F 94% 30.09 in 10.0 mi Calm Calm - N/A   Clear
7:35 PM 53.6 °F 50.0 °F 88% 30.10 in 10.0 mi South 3.5 mph - N/A   Clear
7:55 PM 53.6 °F 50.0 °F 88% 30.10 in 10.0 mi SSW 5.8 mph - N/A   Clear
8:15 PM 53.6 °F 50.0 °F 88% 30.10 in 10.0 mi SSW 3.5 mph - N/A   Clear
8:35 PM 51.8 °F 50.0 °F 94% 30.11 in 10.0 mi SSW 3.5 mph - N/A   Clear
8:55 PM 51.8 °F 50.0 °F 94% 30.11 in 10.0 mi Calm Calm - N/A   Clear
9:15 PM 51.8 °F 50.0 °F 94% 30.11 in 10.0 mi Calm Calm - N/A   Clear
9:35 PM 51.8 °F 50.0 °F 94% 30.12 in 10.0 mi Calm Calm - N/A   Scattered Clouds
9:55 PM 51.8 °F 50.0 °F 94% 30.12 in 10.0 mi Calm Calm - N/A   Scattered Clouds
10:15 PM 51.8 °F 50.0 °F 94% 30.13 in 10.0 mi SSW 4.6 mph - N/A   Mostly Cloudy
10:35 PM 50.0 °F 48.2 °F 94% 30.13 in 10.0 mi South 4.6 mph - N/A   Partly Cloudy
10:55 PM 50.0 °F 48.2 °F 94% 30.14 in 10.0 mi South 4.6 mph - N/A   Clear
11:35 PM 50.0 °F 48.2 °F 94% 30.14 in 10.0 mi South 4.6 mph - N/A   Partly Cloudy
11:55 PM 50.0 °F 48.2 °F 94% 30.14 in 10.0 mi SSW 5.8 mph - N/A   Clear